Stations météo

réclame
Mon MeteoGroup
Chievres, Belgique (6432): Température de l'air & dewpoint: 19.02.2018 22:00:00 - 25.02.2018 22:00:00 (CET)Chievres, Belgique (6432): Vitesse du vent & gusts: 19.02.2018 22:00:00 - 25.02.2018 22:00:00 (CET)Chievres, Belgique (6432): Direction du vent: 19.02.2018 22:00:00 - 25.02.2018 22:00:00 (CET)Chievres, Belgique (6432): reduced air pressure: 19.02.2018 22:00:00 - 25.02.2018 22:00:00 (CET)Chievres, Belgique (6432): visibility: 19.02.2018 22:00:00 - 25.02.2018 22:00:00 (CET)
Date & Time tt [°C] td [°C] ff [km/h] ff [knt] fx [km/h] fx [knt] dd ppp [hPa] vv [km]
25.02.2018 22:00:00 -2,4 -11,5 22 12 - - NE 1027,9 20
25.02.2018 21:00:00 -2,1 -11,6 22 12 29 16 NE 1027,7 20
25.02.2018 20:00:00 -1,5 -12,3 22 12 29 16 NE 1027,5 20
25.02.2018 19:00:00 -1,2 -11,3 18 10 - - NE 1027,4 20
25.02.2018 18:00:00 -0,3 -11,5 18 10 32 18 ENE 1027,0 20
25.02.2018 17:00:00 0,8 -13,2 22 12 36 19 ENE 1026,7 20
25.02.2018 16:00:00 1,1 -13,7 25 14 - - ENE 1026,7 20
25.02.2018 15:00:00 1,3 -12,9 22 12 36 19 ENE 1026,7 19
25.02.2018 14:00:00 0,6 -13,0 22 12 36 19 ENE 1027,2 20
25.02.2018 13:00:00 0,1 -12,9 25 14 - - ENE 1027,5 20
25.02.2018 12:00:00 -0,4 -12,6 25 14 36 19 E 1027,7 17
25.02.2018 11:00:00 -1,5 -12,7 29 16 40 21 ENE 1028,0 19
25.02.2018 10:00:00 -2,7 -12,2 29 16 - - ENE 1027,5 20
25.02.2018 09:00:00 -3,4 -11,2 25 14 40 21 E 1027,4 20
25.02.2018 08:00:00 -4,0 -10,7 22 12 36 19 ENE 1026,7 20
25.02.2018 07:00:00 -3,7 -10,6 25 14 - - ENE 1026,4 20
25.02.2018 06:00:00 -3,4 -10,2 22 12 32 18 ENE 1026,0 20
25.02.2018 05:00:00 -3,0 -10,1 18 10 32 18 ENE 1025,4 20
25.02.2018 04:00:00 -2,6 -10,0 22 12 - - ENE 1025,2 20
25.02.2018 03:00:00 -2,2 -9,3 22 12 29 16 ENE 1025,0 20
25.02.2018 02:00:00 -1,8 -8,8 22 12 32 18 E 1024,9 20
25.02.2018 01:00:00 -1,5 -7,7 22 12 - - ENE 1025,0 20
25.02.2018 00:00:00 -1,0 -7,3 25 14 40 21 ENE 1024,7 20
24.02.2018 23:00:00 -0,5 -7,1 29 16 40 21 ENE 1024,2 19
24.02.2018 22:00:00 -0,1 -6,7 25 14 - - ENE 1023,7 20
24.02.2018 21:00:00 0,3 -6,0 29 16 43 23 ENE 1023,2 20
24.02.2018 20:00:00 1,0 -5,5 25 14 43 23 ENE 1022,7 20
24.02.2018 19:00:00 1,9 -5,9 32 18 - - ENE 1022,2 20
24.02.2018 18:00:00 3,1 -7,2 29 16 43 23 ENE 1021,5 20
24.02.2018 17:00:00 4,5 -7,5 32 18 54 29 ENE 1021,1 20
24.02.2018 16:00:00 5,0 -9,5 32 18 - - E 1020,7 20
24.02.2018 15:00:00 4,3 -8,7 32 18 47 25 ENE 1020,7 20
24.02.2018 14:00:00 3,6 -9,2 29 16 43 23 ENE 1020,7 19
24.02.2018 13:00:00 2,4 -10,9 29 16 - - ENE 1021,2 20
24.02.2018 12:00:00 1,3 -11,6 29 16 43 23 E 1021,3 19
24.02.2018 11:00:00 0,0 -11,3 29 16 43 23 E 1021,3 17
24.02.2018 10:00:00 -1,6 -10,7 29 16 - - ENE 1021,5 16
24.02.2018 09:00:00 -2,9 -10,2 22 12 32 18 ENE 1021,6 14
24.02.2018 08:00:00 -3,9 -9,2 18 10 29 16 ENE 1021,2 13
24.02.2018 07:00:00 -3,8 -9,0 18 10 - - ENE 1020,7 13
24.02.2018 06:00:00 -3,3 -8,9 18 10 29 16 ENE 1020,3 14
24.02.2018 05:00:00 -3,1 -8,6 14 8 22 12 ENE 1020,2 17
24.02.2018 04:00:00 -2,7 -8,4 14 8 - - ENE 1020,1 19
24.02.2018 03:00:00 -2,3 -8,1 14 8 25 14 ENE 1020,0 19
24.02.2018 02:00:00 -2,0 -7,8 14 8 32 18 ENE 1020,1 19
24.02.2018 01:00:00 -1,4 -7,7 22 12 - - ENE 1019,6 18
24.02.2018 00:00:00 -1,2 -7,1 18 10 25 14 ENE 1019,5 18
23.02.2018 23:00:00 -1,0 -7,1 18 10 29 16 ENE 1019,2 19
23.02.2018 22:00:00 -0,3 -7,5 22 12 - - ENE 1019,3 20
23.02.2018 21:00:00 -0,3 -7,0 18 10 25 14 ENE 1019,3 19
23.02.2018 20:00:00 0,0 -6,8 18 10 29 16 ENE 1019,3 19
23.02.2018 19:00:00 0,4 -7,1 18 10 - - ENE 1019,2 19
23.02.2018 18:00:00 1,1 -7,3 22 12 36 19 ENE 1019,1 20
23.02.2018 17:00:00 2,0 -7,9 22 12 40 21 ENE 1019,0 20
23.02.2018 16:00:00 2,3 -7,9 29 16 - - ENE 1019,0 20
23.02.2018 15:00:00 2,5 -6,4 25 14 32 18 ENE 1019,2 20
23.02.2018 14:00:00 - - - - - - - - -
23.02.2018 13:00:00 - - - - - - - - -
23.02.2018 12:00:00 - - 29 16 36 19 ENE - 18
23.02.2018 11:00:00 - - - - 0 0 - - -
23.02.2018 10:00:00 - - - - - - - - -
23.02.2018 09:00:00 - - - - 0 0 - - -
23.02.2018 08:00:00 - - - - 0 0 - - -
23.02.2018 07:00:00 - - - - - - - - -
23.02.2018 06:00:00 - - - - 0 0 - - -
23.02.2018 05:00:00 - - - - 0 0 - - -
23.02.2018 04:00:00 - - - - - - - - -
23.02.2018 03:00:00 - - - - 0 0 - - -
23.02.2018 02:00:00 - - - - 0 0 - - -
23.02.2018 01:00:00 - - - - - - - - -
23.02.2018 00:00:00 - - - - 0 0 - - -
22.02.2018 23:00:00 - - - - 0 0 - - -
22.02.2018 22:00:00 - - - - - - - - -
22.02.2018 21:00:00 - - - - 0 0 - - -
22.02.2018 20:00:00 - - - - 0 0 - - -
22.02.2018 19:00:00 - - - - - - - - -
22.02.2018 18:00:00 2,2 -4,8 18 10 40 21 ENE 1021,1 18
22.02.2018 17:00:00 3,7 -5,5 25 14 40 21 ENE 1020,8 19
22.02.2018 16:00:00 4,3 -5,7 29 16 - - ENE 1020,8 20
22.02.2018 15:00:00 4,5 -6,8 25 14 47 25 ENE 1021,3 20
22.02.2018 14:00:00 4,0 -5,7 25 14 43 23 ENE 1022,2 20
22.02.2018 13:00:00 3,4 -5,0 25 14 - - ENE 1022,6 15
22.02.2018 12:00:00 2,4 -4,8 22 12 32 18 ENE 1023,0 15
22.02.2018 11:00:00 1,0 -4,2 25 14 36 19 ENE 1023,2 10
22.02.2018 10:00:00 -0,4 -3,9 21 11 - - ENE 1023,3 10
22.02.2018 09:00:00 -1,8 -4,1 14 8 18 10 NE 1023,3 7
22.02.2018 08:00:00 -3,0 -4,3 11 6 18 10 NE 1023,1 4,6
22.02.2018 07:00:00 -3,1 -4,3 11 6 - - NE 1022,8 4,0
22.02.2018 06:00:00 -2,9 -4,2 14 8 18 10 NNE 1022,7 4,1
22.02.2018 05:00:00 -2,6 -4,0 11 6 18 10 NNE 1022,6 3,9
22.02.2018 04:00:00 -2,4 -3,9 11 6 - - NE 1022,7 4,2
22.02.2018 03:00:00 -1,9 -3,7 14 8 18 10 NNE 1023,1 4,4
22.02.2018 02:00:00 -1,7 -3,5 11 6 14 8 NNE 1023,3 4,2
22.02.2018 01:00:00 -1,3 -3,3 11 6 - - NE 1023,7 4,1
22.02.2018 00:00:00 -1,0 -3,0 11 6 14 8 NNE 1024,0 3,9
21.02.2018 23:00:00 -0,9 -2,8 7 4 14 8 NE 1024,2 3,3
21.02.2018 22:00:00 -0,4 -2,7 11 6 - - NNE 1024,4 3,6
21.02.2018 21:00:00 -0,1 -2,8 11 6 18 10 NNE 1024,2 4,4
21.02.2018 20:00:00 0,8 -2,9 11 6 18 10 NNE 1024,2 5
21.02.2018 19:00:00 1,2 -2,8 11 6 - - NNE 1024,0 5
21.02.2018 18:00:00 2,5 -3,0 11 6 25 14 NE 1023,7 7
21.02.2018 17:00:00 3,9 -3,2 18 10 29 16 NE 1023,7 6
21.02.2018 16:00:00 4,3 -3,1 18 10 - - NE 1024,0 7
21.02.2018 15:00:00 4,2 -2,6 18 10 29 16 NNE 1024,5 6
21.02.2018 14:00:00 3,9 -2,3 14 8 25 14 NE 1025,2 5
21.02.2018 13:00:00 3,2 -2,1 14 8 - - NNE 1025,7 5
21.02.2018 12:00:00 1,8 -2,8 14 8 25 14 NE 1026,0 5
21.02.2018 11:00:00 0,4 -2,6 14 8 25 14 NE 1026,0 3,6
21.02.2018 10:00:00 -0,8 -2,6 14 8 - - NE 1026,0 3,1
21.02.2018 09:00:00 -1,8 -2,8 11 6 18 10 NNE 1025,5 2,3
21.02.2018 08:00:00 -1,9 -3,1 11 6 18 10 NNE 1025,4 2,7
21.02.2018 07:00:00 -2,0 -2,9 11 6 - - N 1025,2 2,3
21.02.2018 06:00:00 -1,6 -2,7 11 6 14 8 NNE 1024,9 2,7
21.02.2018 05:00:00 -1,5 -2,6 7 4 14 8 NNE 1024,5 2,5
21.02.2018 04:00:00 -1,4 -2,5 11 6 - - N 1024,2 2,5
21.02.2018 03:00:00 -0,7 -2,1 11 6 18 10 NNE 1023,7 3,3
21.02.2018 02:00:00 -0,3 -1,9 11 6 18 10 NNE 1023,6 3,9
21.02.2018 01:00:00 0,2 -1,7 14 8 - - NE 1023,5 4,3
21.02.2018 00:00:00 0,8 -1,3 14 8 18 10 NNE 1023,1 4,9
20.02.2018 23:00:00 1,3 -1,3 14 8 22 12 NNE 1022,2 5
20.02.2018 22:00:00 1,6 -0,9 11 6 - - NNE 1021,7 5
20.02.2018 21:00:00 2,2 -0,7 11 6 18 10 NE 1021,1 4,7
20.02.2018 20:00:00 3,2 -0,5 11 6 14 8 NNE 1020,5 5
20.02.2018 19:00:00 3,2 0,0 7 4 - - NNE 1019,7 4,6
20.02.2018 18:00:00 4,5 -0,3 11 6 14 8 NNE 1019,3 5
20.02.2018 17:00:00 5,0 0,0 11 6 14 8 NNE 1018,7 6
20.02.2018 16:00:00 5,1 -1,4 11 6 - - NNE 1018,6 8
20.02.2018 15:00:00 5,5 -0,4 4 2 7 4 N 1018,5 6
20.02.2018 14:00:00 5,6 -0,3 4 2 7 4 N 1018,7 6
20.02.2018 13:00:00 4,9 0,7 4 2 - - N 1019,1 6
20.02.2018 12:00:00 4,5 0,1 7 4 11 6 N 1019,1 6
20.02.2018 11:00:00 3,5 1,8 4 2 7 4 N 1019,1 4,9
20.02.2018 10:00:00 2,2 1,5 4 2 - - N 1019,1 3,6
20.02.2018 09:00:00 1,5 1,5 4 2 7 4 N 1018,6 2,5
20.02.2018 08:00:00 0,6 0,4 4 2 7 4 N 1018,7 2,4
20.02.2018 07:00:00 1,0 0,8 4 2 - - N 1018,0 3,0
20.02.2018 06:00:00 1,1 0,8 4 2 11 6 N 1017,7 2,8
20.02.2018 05:00:00 1,3 0,8 7 4 11 6 E 1017,7 4,0
20.02.2018 04:00:00 1,3 0,8 7 4 - - E 1017,6 4,0
20.02.2018 03:00:00 1,5 1,1 7 4 7 4 ENE 1017,5 3,5
20.02.2018 02:00:00 1,8 1,3 4 2 7 4 N 1017,2 4,2
20.02.2018 01:00:00 2,0 1,4 4 2 - - N 1017,3 5
20.02.2018 00:00:00 2,0 1,3 7 4 18 10 S 1017,2 6
19.02.2018 23:00:00 2,0 1,6 11 6 18 10 SE 1017,2 5
19.02.2018 22:00:00 2,2 2,0 7 4 - - SSE 1017,3 3,6

tt = Température de l'air
td = dewpoint
ff = Vitesse du vent
fx = gusts
dd = Direction du vent
ppp = reduced air pressure
vv = visibility

stations d'obs. à proximité